Location: Unspecified
(58.7730°N, 5.8460°E)
Time: 17:38:59
(UTC+02:00)

Okean 3 - Visible Passes

Search period start: 03 July 2015 00:00
Search period end: 13 July 2015 00:00
Orbit: 579 x 606 km, 82.5° (Epoch: 03 July)

Date Brightness Start Highest point End Pass type
(mag) Time Alt. Az. Time Alt. Az. Time Alt. Az.
03 Jul 4.3 01:12:19 10° NNW 01:16:16 40° W 01:20:12 10° SSW visible
04 Jul 4.8 01:21:33 10° NNW 01:25:16 30° W 01:28:55 10° SSW visible
05 Jul 5.2 01:30:54 10° NW 01:34:13 22° W 01:37:28 10° SW visible
06 Jul 3.5 00:02:04 10° NNW 00:06:18 83° ENE 00:10:31 10° SSE visible
06 Jul 5.6 01:40:22 10° NW 01:43:08 17° W 01:45:48 10° WSW visible
07 Jul 3.6 00:11:11 10° NNW 00:15:23 72° W 00:19:34 10° S visible
07 Jul 5.9 01:50:06 10° NW 01:52:02 13° W 01:53:48 10° WSW visible
08 Jul 4.0 00:20:19 10° NNW 00:24:26 52° W 00:28:31 10° S visible
09 Jul 4.5 00:29:31 10° NNW 00:33:26 38° W 00:37:20 10° SSW visible
10 Jul 5.0 00:38:46 10° NNW 00:42:25 28° W 00:46:01 10° SSW visible
11 Jul 5.5 00:48:07 10° NW 00:51:21 21° W 00:54:32 10° SW visible
12 Jul 5.8 00:57:36 10° NW 01:00:16 16° W 01:02:49 10° WSW visible
